RH
32 33 33 35 36 44 52 56 58 61 61 63 62 60 56 53 55 59 43 45 43 40 37 35 35 37 35 37 36 39 38 35 37 41 43 44 47 47 46 52 52 52 56 65 71 76 77 79 79
27 30 31 29 37 41 47 50 57 61 63 61 55 54 48 45 46 45 43 39 37 35 34 33 33 35 34 33 32 33 32 32 34 37 39 42 44 45 44 45 46 51 51 51 58 66 73 74 78
24 25 26 30 35 41 43 46 51 56 59 55 49 45 45 46 42 40 37 32 31 30 29 27 25 25 25 24 23 22 22 23 26 29 34 39 42 42 44 44 43 43 47 54 54 55 60 66 71
22 22 26 31 37 38 39 41 46 50 47 47 46 43 41 39 36 31 29 29 27 25 22 20 18 18 19 19 19 18 18 18 20 26 24 26 28 33 37 40 38 41 42 44 53 56 58 57 63
19 21 27 32 35 34 35 40 43 43 42 41 43 41 35 30 27 26 26 24 21 19 17 16 16 15 16 16 17 17 18 18 19 22 23 26 26 22 25 29 32 33 38 43 46 51 53 57 58
19 20 25 31 32 32 34 36 37 39 41 43 38 32 26 24 25 25 23 20 18 18 19 19 18 18 17 17 17 18 21 21 21 20 21 26 28 23 20 21 21 26 29 40 42 47 49 53 56
21 23 28 30 33 35 35 34 34 35 36 35 32 26 25 25 22 21 21 20 20 19 19 17 16 15 14 13 13 14 17 18 18 18 18 18 17 18 18 14 13 10 13 29 39 42 46 50 53
20 24 30 33 36 37 35 35 34 35 34 26 24 24 24 23 23 23 22 20 19 18 17 17 16 15 16 17 18 20 20 19 21 21 18 17 17 12 10 9 8 6 10 13 18 33 41 46 53
20 27 32 35 35 34 34 35 34 30 24 24 25 25 26 25 23 20 19 20 18 17 17 17 18 19 21 27 30 31 31 30 28 25 22 21 20 19 17 15 13 13 12 11 11 12 19 31 44
24 30 32 32 34 34 35 33 28 25 26 26 27 26 25 22 20 20 20 19 18 16 15 18 22 26 34 38 39 39 39 39 39 37 34 29 25 24 24 23 21 19 19 17 12 5 6 9 23
23 28 29 31 32 31 30 28 27 28 28 29 29 25 22 21 20 21 22 21 19 18 22 27 31 40 44 44 42 42 46 48 47 44 42 39 37 35 31 29 28 25 23 20 17 13 8 6 7
22 25 26 28 28 28 28 27 27 28 28 26 23 21 20 20 22 23 22 18 17 18 24 31 40 50 50 45 38 38 46 51 57 56 52 46 47 45 42 37 33 29 28 26 24 20 16 10 8
21 24 25 26 26 25 25 26 26 26 24 22 20 19 19 21 23 21 18 17 18 22 30 38 52 52 50 36 36 35 37 42 56 62 60 58 55 51 46 42 40 37 34 32 29 25 22 17 12
23 24 24 24 24 25 26 27 25 23 20 19 19 20 21 23 20 17 16 16 22 30 40 57 67 64 52 38 35 34 33 34 35 41 49 58 61 60 56 52 46 42 39 37 34 30 26 23 19
22 23 23 24 25 26 25 24 22 20 18 18 20 20 22 19 16 14 16 22 30 42 59 76 75 55 43 39 38 36 36 36 35 35 36 39 43 55 61 58 54 52 46 42 40 37 33 30 26
23 24 26 24 24 25 25 23 20 19 18 19 19 21 19 13 12 16 24 32 45 61 78 75 50 37 35 34 37 36 37 40 42 42 41 38 37 40 44 54 62 59 55 51 47 45 41 37 34
22 22 25 25 23 24 24 22 19 18 18 19 20 21 14 9 14 23 33 49 61 75 71 46 37 31 30 29 33 34 38 41 46 47 47 47 45 43 40 40 45 55 64 62 58 55 52 47 43
19 19 21 23 23 23 22 21 19 18 18 19 21 15 9 11 20 34 48 61 72 56 44 34 29 25 27 30 30 29 32 39 46 46 52 56 55 52 49 44 43 47 53 60 64 65 63 59 55
17 17 17 20 20 21 20 19 18 17 18 20 15 10 9 17 32 46 58 70 46 36 29 26 26 26 30 36 33 33 29 34 44 47 53 58 60 63 59 53 50 52 56 61 64 68 68 69 65
16 14 18 20 20 19 18 18 17 18 20 17 12 9 13 25 42 55 67 35 31 29 29 28 26 27 28 33 36 43 49 56 59 59 62 65 64 67 72 67 62 62 65 68 72 75 74 73 73
15 14 14 13 20 20 18 22 18 19 19 14 8 11 17 33 50 64 37 26 30 31 28 24 26 31 33 37 41 45 51 65 69 67 64 65 68 70 79 79 77 77 80 82 82 82 81 76 71
13 13 13 17 19 20 24 25 20 19 16 11 9 13 20 38 59 48 28 25 30 29 27 27 31 35 42 41 45 50 55 58 62 70 76 80 82 81 84 90 90 90 90 87 83 79 72 63 58
11 11 16 19 20 24 27 27 22 17 13 10 10 14 22 45 60 37 27 31 33 28 27 32 35 38 40 43 53 58 58 61 65 69 73 77 83 90 86 88 87 82 75 70 66 63 58 59 60
11 16 18 20 21 22 22 23 18 18 15 12 12 16 24 52 50 35 28 31 29 28 31 35 37 38 42 52 57 55 55 54 54 58 66 76 84 85 83 79 73 66 65 60 58 59 62 61 61
11 12 12 11 13 14 18 18 16 17 14 12 14 18 28 55 44 33 26 27 29 29 33 36 39 37 47 54 51 50 46 45 45 48 54 59 70 87 96 96 92 85 75 71 65 63 63 64 68
12 12 12 10 11 13 18 17 14 15 13 10 14 21 32 58 41 32 27 28 28 31 35 39 40 45 50 50 46 41 40 40 41 42 44 49 58 67 82 94 95 92 80 70 70 67 67 68 69
12 13 13 14 20 18 14 14 14 15 10 10 15 23 36 56 40 31 27 29 31 33 36 41 41 50 48 47 37 38 37 37 40 41 42 46 50 52 63 80 90 93 90 76 68 65 68 67 64
13 15 11 15 20 13 9 12 11 13 12 12 16 25 39 55 40 32 27 29 31 34 39 40 45 51 46 37 34 36 38 40 42 43 41 46 50 54 58 63 86 93 95 87 75 70 62 59 63
15 15 19 18 17 16 15 8 13 14 13 14 18 24 41 53 39 31 29 29 32 35 40 41 47 45 43 33 33 34 36 42 45 45 41 45 53 60 66 69 71 91 93 94 78 62 57 59 64
18 18 15 26 22 28 26 16 12 13 13 14 19 24 42 49 41 31 32 31 32 36 41 41 48 42 41 33 34 36 38 42 44 45 39 44 55 71 80 76 79 87 96 90 67 56 56 56 61